TIANMU-1 07

Last updated on Wed Sep 23 2026 00:03:10 GMT+0000 (Coordinated Universal Time)

1 57399U 23101A 26265.59448144 .00004103 00000+0 14052-3 0 9992 2 57399 97.2505 314.0394 0003784 127.6991 232.4595 15.30763533176543
UTC large
Height (km)
Speed (km/s)
/
Latitude / Longitude
Inclination (degrees)
Orbital Period (minutes)
Azimuth
Elevation
Range (km)
Doppler Factor

Next 0 passes for location: London (51.5072 / 0.1276)

No passes found over London.
TIANMU-1 07